Torna al catalogo

STARLINK-32162

AttivoComunicazioniVLEO
NORAD 60597·PAYLOAD·🇺🇸 United States

Lanciato Aug 20, 2024 da Cape Canaveral Space Force Station

Loading…

Prossimi Passaggi (prossime 24 ore)

TLE

AggiornatoSource: CelesTrak SupGP

Epoca: Sep 14, 2026, 20:36 UTC

1 60597C 24150Q   26257.85881944 -.00044690  00000+0 -13198-2 0  2573
2 60597  53.1595 148.0313 0001342  91.0278  90.4490 15.34425808    11

Traccia STARLINK-32162 in tempo reale con AllMySat

Download on the App Store